Location: Miss�
(46.9484°N, 0.1922°W)
Time: 21:28:24
(UTC+00:00)

Cosmos 1943 Rocket - Pass Details

Date: 02 March 2021
Orbit: 811 x 844 km, 71.0° (Epoch: 14 April)

Event Time Altitude Azimuth Distance (km) Brightness Sun altitude
Rises 21:01:59 0° 338° (NNW) 3,415 6.0 -32.9°
Reaches altitude 10° 21:04:57 10° 353° (N) 2,476 5.0 -33.4°
Enters shadow 21:07:03 18° 11° (N) 1,958 4.2 -33.7°
